• In Lithuania
  • List of Countries
  • For 7 days
  • Water Temperature
  • Satellite Maps
  • Weather Map
  • Weather Widgets
  • user-avatar
    Login

    Hourly Weather Targowka

    Today, 19 September, Wednesday

    Time Temperature Precipitation Wind Pressure Humidity
    00:00 +20°C° 0 mm 4 mps 747 mmHg 66%
    01:00 +19°C° 0 mm 4 mps 747 mmHg 67%
    02:00 +18°C° 0 mm 4 mps 747 mmHg 67%
    03:00 +18°C° 0 mm 4 mps 747 mmHg 67%
    04:00 +18°C° 0 mm 4 mps 747 mmHg 66%
    05:00 +18°C° 0 mm 4 mps 747 mmHg 65%
    06:00 +18°C° 0 mm 4 mps 747 mmHg 64%
    07:00 +19°C° 0 mm 4 mps 747 mmHg 63%
    08:00 +20°C° 0 mm 4 mps 748 mmHg 59%
    09:00 +22°C° 0 mm 4 mps 748 mmHg 55%
    10:00 +25°C° 0 mm 4 mps 748 mmHg 51%
    11:00 +27°C° 0 mm 4 mps 748 mmHg 49%
    12:00 +28°C° 0 mm 4 mps 748 mmHg 47%
    13:00 +29°C° 0 mm 3 mps 748 mmHg 44%
    14:00 +29°C° 0 mm 3 mps 748 mmHg 45%
    15:00 +29°C° 0 mm 3 mps 748 mmHg 46%
    16:00 +29°C° 0 mm 3 mps 748 mmHg 47%
    17:00 +27°C° 0 mm 2 mps 748 mmHg 52%
    18:00 +25°C° 0 mm 2 mps 748 mmHg 56%
    19:00 +24°C° 0 mm 1 mps 748 mmHg 61%
    20:00 +23°C° 0 mm 1 mps 748 mmHg 63%
    21:00 +23°C° 0 mm 1 mps 748 mmHg 64%
    22:00 +22°C° 0 mm 1 mps 749 mmHg 66%
    23:00 +21°C° 0 mm 2 mps 749 mmHg 68%

    Tomorrow, 20 September, Thursday

    Time Temperature Precipitation Wind Pressure Humidity
    00:00 +20°C° 0 mm 2 mps 749 mmHg 70%
    01:00 +20°C° 0 mm 2 mps 749 mmHg 72%
    02:00 +19°C° 0 mm 2 mps 748 mmHg 73%
    03:00 +19°C° 0 mm 2 mps 748 mmHg 75%
    04:00 +19°C° 0 mm 2 mps 748 mmHg 77%
    05:00 +19°C° 0 mm 2 mps 748 mmHg 76%
    06:00 +19°C° 0 mm 2 mps 749 mmHg 75%
    07:00 +20°C° 0 mm 3 mps 749 mmHg 74%
    08:00 +22°C° 0 mm 3 mps 749 mmHg 67%
    09:00 +25°C° 0 mm 3 mps 749 mmHg 60%
    10:00 +27°C° 0 mm 3 mps 749 mmHg 53%
    11:00 +28°C° 0 mm 3 mps 749 mmHg 50%
    12:00 +28°C° 0 mm 3 mps 749 mmHg 47%
    13:00 +29°C° 0 mm 3 mps 749 mmHg 44%
    14:00 +29°C° 0 mm 3 mps 748 mmHg 45%
    15:00 +29°C° 0 mm 3 mps 748 mmHg 45%
    16:00 +29°C° 0 mm 2 mps 748 mmHg 45%
    17:00 +27°C° 0 mm 2 mps 748 mmHg 50%
    18:00 +26°C° 0 mm 2 mps 748 mmHg 55%
    19:00 +24°C° 0 mm 1 mps 748 mmHg 59%
    20:00 +23°C° 0 mm 2 mps 748 mmHg 60%
    21:00 +23°C° 0 mm 2 mps 748 mmHg 61%
    22:00 +21°C° 0 mm 2 mps 748 mmHg 62%
    23:00 +21°C° 0 mm 2 mps 748 mmHg 63%

    Day after tomorrow, 21 September, Friday

    Time Temperature Precipitation Wind Pressure Humidity
    00:00 +20°C° 0 mm 3 mps 747 mmHg 63%
    01:00 +20°C° 0 mm 3 mps 747 mmHg 64%
    02:00 +20°C° 0 mm 3 mps 747 mmHg 65%
    03:00 +19°C° 0 mm 3 mps 747 mmHg 66%
    04:00 +19°C° 0 mm 3 mps 746 mmHg 68%
    05:00 +19°C° 0 mm 3 mps 746 mmHg 68%
    06:00 +19°C° 0 mm 4 mps 746 mmHg 69%
    07:00 +20°C° 0 mm 4 mps 746 mmHg 69%
    08:00 +22°C° 0 mm 5 mps 746 mmHg 63%
    09:00 +25°C° 0 mm 5 mps 745 mmHg 57%
    10:00 +27°C° 0 mm 6 mps 745 mmHg 50%
    11:00 +28°C° 0 mm 6 mps 744 mmHg 46%
    12:00 +28°C° 0 mm 7 mps 744 mmHg 42%
    13:00 +29°C° 0 mm 7 mps 743 mmHg 38%
    14:00 +29°C° 0 mm 7 mps 743 mmHg 39%
    15:00 +29°C° 0 mm 6 mps 742 mmHg 40%
    16:00 +29°C° 0 mm 6 mps 742 mmHg 41%
    17:00 +27°C° 0 mm 6 mps 742 mmHg 43%
    18:00 +26°C° 0 mm 6 mps 741 mmHg 46%
    19:00 +24°C° 0 mm 6 mps 741 mmHg 49%
    20:00 +24°C° 0 mm 6 mps 742 mmHg 51%
    21:00 +23°C° 0 mm 7 mps 742 mmHg 52%
    22:00 +23°C° 0 mm 7 mps 743 mmHg 54%
    23:00 +20°C° 0.2 mm 7 mps 743 mmHg 59%

    22 September, Saturday

    Time Temperature Precipitation Wind Pressure Humidity
    00:00 +16°C° 0.2 mm 7 mps 744 mmHg 64%
    01:00 +14°C° 0.2 mm 7 mps 745 mmHg 69%
    02:00 +13°C° 0.7 mm 6 mps 745 mmHg 72%
    03:00 +11°C° 0.7 mm 6 mps 746 mmHg 74%
    04:00 +12°C° 0.7 mm 5 mps 747 mmHg 76%
    05:00 +12°C° 0.3 mm 5 mps 747 mmHg 74%
    06:00 +12°C° 0.3 mm 5 mps 748 mmHg 73%
    07:00 +12°C° 0.3 mm 4 mps 748 mmHg 71%
    08:00 +13°C° 0 mm 5 mps 749 mmHg 68%
    09:00 +13°C° 0 mm 5 mps 749 mmHg 65%
    10:00 +13°C° 0 mm 5 mps 749 mmHg 62%
    11:00 +14°C° 0 mm 5 mps 749 mmHg 58%
    12:00 +15°C° 0 mm 6 mps 749 mmHg 55%
    13:00 +15°C° 0 mm 6 mps 749 mmHg 51%
    14:00 +15°C° 0.1 mm 6 mps 749 mmHg 50%
    15:00 +16°C° 0.1 mm 6 mps 749 mmHg 48%
    16:00 +16°C° 0.1 mm 5 mps 748 mmHg 47%
    17:00 +15°C° 0 mm 5 mps 749 mmHg 49%
    18:00 +14°C° 0 mm 4 mps 749 mmHg 52%
    19:00 +13°C° 0 mm 3 mps 749 mmHg 54%
    20:00 +13°C° 0 mm 3 mps 749 mmHg 55%
    21:00 +12°C° 0 mm 3 mps 749 mmHg 57%
    22:00 +11°C° 0 mm 4 mps 750 mmHg 58%
    23:00 +11°C° 0 mm 4 mps 750 mmHg 60%

    23 September, Sunday

    Time Temperature Precipitation Wind Pressure Humidity
    00:00 +10°C° 0 mm 4 mps 750 mmHg 61%
    01:00 +10°C° 0 mm 3 mps 750 mmHg 63%
    02:00 +9°C° 0 mm 3 mps 750 mmHg 65%
    03:00 +9°C° 0 mm 3 mps 750 mmHg 67%
    04:00 +9°C° 0 mm 3 mps 750 mmHg 69%
    05:00 +8°C° 0 mm 4 mps 750 mmHg 69%
    06:00 +8°C° 0 mm 4 mps 750 mmHg 69%
    07:00 +10°C° 0 mm 4 mps 750 mmHg 69%
    08:00 +10°C° 0 mm 5 mps 750 mmHg 62%
    09:00 +12°C° 0 mm 5 mps 750 mmHg 55%
    10:00 +14°C° 0 mm 5 mps 750 mmHg 48%
    11:00 +15°C° 0 mm 5 mps 749 mmHg 45%
    12:00 +15°C° 0 mm 5 mps 749 mmHg 42%
    13:00 +17°C° 0 mm 4 mps 748 mmHg 40%
    14:00 +17°C° 0 mm 4 mps 747 mmHg 41%
    15:00 +17°C° 0 mm 4 mps 746 mmHg 42%
    16:00 +17°C° 0 mm 3 mps 746 mmHg 42%
    17:00 +15°C° 0.3 mm 4 mps 745 mmHg 49%
    18:00 +14°C° 0.3 mm 4 mps 743 mmHg 55%
    19:00 +13°C° 0.3 mm 4 mps 742 mmHg 61%
    20:00 +13°C° 1.6 mm 5 mps 741 mmHg 66%
    21:00 +13°C° 1.6 mm 5 mps 740 mmHg 70%
    22:00 +12°C° 1.6 mm 5 mps 739 mmHg 75%
    23:00 +11°C° 3.2 mm 6 mps 738 mmHg 77%

    24 September, Monday

    Time Temperature Precipitation Wind Pressure Humidity
    00:00 +11°C° 3.2 mm 7 mps 736 mmHg 80%
    01:00 +11°C° 3.2 mm 8 mps 734 mmHg 82%
    02:00 +11°C° 2.4 mm 8 mps 733 mmHg 83%
    03:00 +12°C° 2.4 mm 8 mps 732 mmHg 83%
    04:00 +13°C° 2.4 mm 9 mps 731 mmHg 84%
    05:00 +13°C° 0.4 mm 8 mps 731 mmHg 80%
    06:00 +12°C° 0.4 mm 8 mps 731 mmHg 75%
    07:00 +12°C° 0.4 mm 8 mps 730 mmHg 71%
    08:00 +12°C° 0.5 mm 8 mps 730 mmHg 73%
    09:00 +12°C° 0.5 mm 8 mps 729 mmHg 75%
    10:00 +11°C° 0.5 mm 8 mps 729 mmHg 77%
    11:00 +12°C° 0.6 mm 10 mps 729 mmHg 77%
    12:00 +12°C° 0.6 mm 11 mps 730 mmHg 77%
    13:00 +12°C° 0.6 mm 12 mps 730 mmHg 76%
    14:00 +10°C° 0.6 mm 13 mps 731 mmHg 78%
    15:00 +10°C° 0.6 mm 13 mps 732 mmHg 79%
    16:00 +9°C° 0.6 mm 14 mps 733 mmHg 80%
    17:00 +9°C° 0.8 mm 14 mps 734 mmHg 79%
    18:00 +9°C° 0.8 mm 14 mps 735 mmHg 78%
    19:00 +9°C° 0.8 mm 14 mps 736 mmHg 77%
    20:00 +9°C° 0.3 mm 14 mps 738 mmHg 76%
    21:00 +8°C° 0.3 mm 14 mps 739 mmHg 76%
    22:00 +8°C° 0.3 mm 14 mps 740 mmHg 75%
    23:00 +8°C° 0.2 mm 13 mps 742 mmHg 75%
    Show more